Lid_Strength_Index
4 4 4 4 4 5 3 1 4 0 -1 4 4 6 6 8 6 4 5 5 6 7 7 8 8 9 7 5 5 8 6 8 9 9 7 6 7 9 9 12 14 11 12 15
4 4 4 4 4 5 1 2 3 -0 1 6 6 5 6 5 5 6 6 6 6 6 7 9 8 7 5 5 6 7 6 9 11 11 9 7 9 8 8 9 9 13 13 14
4 4 4 4 5 5 1 3 5 3 3 3 5 6 6 6 5 5 5 6 5 6 7 6 8 8 6 5 5 5 5 8 10 12 11 9 11 9 8 9 11 12 12 10
4 4 4 4 4 5 1 3 6 5 6 6 5 5 6 7 7 5 5 6 6 7 8 8 8 7 6 5 6 5 6 10 9 9 9 9 9 10 9 10 9 12 10 10
4 4 4 4 5 5 1 4 4 3 5 5 5 7 7 7 7 6 7 7 6 6 8 8 8 7 7 7 6 6 7 10 9 11 9 9 10 9 9 9 9 9 9 11
4 4 4 4 4 3 2 1 1 4 6 6 6 7 7 7 6 5 5 5 6 7 6 5 5 4 5 5 6 7 8 9 10 12 9 10 12 10 9 8 8 8 11 8
4 4 4 4 4 4 0 2 2 4 7 5 6 6 6 6 6 6 5 5 5 5 3 3 4 4 5 5 6 5 8 8 8 11 10 15 10 7 7 8 7 7 7 7
4 4 4 4 4 4 1 1 2 4 6 5 6 6 6 5 5 5 5 5 4 2 4 6 8 8 8 7 6 6 6 7 10 12 11 11 10 8 8 8 9 6 6 6
4 4 4 4 4 4 1 2 1 2 5 7 5 6 5 6 6 6 5 3 2 3 4 6 10 10 9 10 9 6 6 6 8 9 12 14 9 7 5 5 12 6 6 6
4 4 4 4 4 4 2 2 0 2 5 4 4 6 6 4 5 5 5 5 4 4 5 7 8 10 8 11 12 11 9 8 10 10 10 10 7 6 5 11 11 5 5 5
4 5 4 3 3 3 2 1 1 2 4 3 2 2 4 4 4 6 5 6 5 4 7 8 8 8 8 9 9 9 10 10 10 9 11 13 5 6 9 7 5 4 4 4
5 4 3 3 3 4 3 1 0 0 2 3 1 1 1 1 2 4 3 6 6 5 6 6 6 8 7 9 11 6 10 8 9 9 10 7 5 5 4 4 5 4 4 3
3 3 3 3 3 3 3 1 1 0 2 3 2 3 1 -1 -0 -0 5 3 4 4 3 5 6 9 7 9 9 8 7 6 7 8 7 6 5 4 3 3 3 3 3 3
3 3 3 3 3 3 3 2 1 0 2 4 4 -0 1 -0 -0 0 0 2 1 2 2 4 5 7 5 7 7 7 6 6 8 7 6 5 5 4 3 3 2 3 3 3
4 3 3 3 3 4 1 1 1 1 3 5 4 1 1 0 0 1 1 1 2 2 4 5 7 4 5 4 5 8 6 7 8 9 5 5 5 3 3 3 3 3 4 4
4 3 3 3 3 3 -0 3 1 1 0 3 5 2 2 1 1 1 2 2 2 2 4 5 4 4 5 6 8 6 4 4 4 6 3 3 3 2 2 3 3 3 4 3
3 3 3 3 3 1 3 4 2 3 -1 3 5 5 2 1 1 1 1 1 2 3 3 4 4 5 4 6 9 6 5 4 4 3 3 4 3 4 2 2 2 3 3 3
3 3 3 3 3 3 3 1 2 2 1 2 5 6 4 2 3 4 2 2 2 3 3 3 5 4 4 8 6 5 4 4 4 3 3 3 2 2 2 2 2 3 3 3
3 3 3 1 1 3 2 2 2 -1 1 4 4 6 8 2 3 2 3 3 5 3 5 5 4 6 9 7 6 5 4 4 4 3 3 3 3 3 3 2 4 3 3 3
3 2 2 4 2 3 1 1 2 2 1 1 5 2 5 3 3 4 4 3 5 6 6 4 6 8 5 4 4 3 3 3 3 4 5 4 4 4 3 3 4 4 4 4
1 2 3 1 2 1 2 4 5 4 5 3 4 4 5 2 6 6 4 5 4 8 7 7 8 8 6 3 3 2 2 2 2 2 2 2 2 3 3 3 3 4 3 4
3 2 2 1 2 3 6 6 4 5 7 4 4 4 3 3 2 4 4 6 5 10 4 7 9 7 4 4 3 3 2 2 2 2 2 2 2 2 2 2 4 3 3 3
1 3 5 5 5 11 9 9 7 7 5 4 4 5 3 3 2 4 5 8 8 4 7 9 8 5 4 3 3 3 2 2 2 2 2 2 2 1 2 3 2 2 2 3
3 6 11 7 8 7 6 7 6 5 4 4 4 4 5 3 5 5 8 6 6 8 10 11 7 5 4 3 3 3 3 2 2 2 2 2 2 2 3 3 2 2 3 4
5 5 10 7 5 5 5 5 5 4 3 4 4 4 4 5 6 5 6 8 10 9 10 7 5 4 3 3 3 3 3 2 3 2 2 2 2 2 3 3 2 2 3 3
4 4 6 5 5 6 5 5 5 4 3 2 3 6 7 7 6 8 9 9 10 9 6 4 3 3 3 3 3 3 3 3 3 3 2 2 2 2 2 3 3 3 2 2
6 5 3 4 4 5 5 4 5 3 4 5 5 8 9 6 7 9 7 9 7 5 4 3 3 3 3 2 2 2 2 2 2 2 2 2 3 4 5 5 4 2 1 0